sat.trackr.live / text

‹ back to catalog

STARLINK-2637

NORAD 48356 · 2021-038D

PAYLOAD ACTIVE UNKNOWN

§ Identity

Operator
Country
US
Launch date
2021-05-04
Launch site
AFETR
Launch vehicle
Mass (kg)
RCS (m²)

Purposes: comms

External: N2YO · Heavens-Above · Gunter

§ Orbital elements

Epoch: 2026-05-24T21:44:03.465024Z

Period
94.01 min
Inclination
53.1612°
Eccentricity
0.0001258
Mean motion
15.31701743 rev/d
Perigee alt
469.9 km
Apogee alt
471.6 km
Semi-major
6,848.9 km
B*
2.9163e-4
RAAN
3.9236°
Arg perigee
102.3350°
Mean anomaly
257.7792°
Rev number
27,875

§ Raw data

STARLINK-26371 48356U 21038D   26144.90559566  .00008696  00000+0  29163-3 0  99942 48356  53.1612   3.9236 0001258 102.3350 257.7792 15.31701743278759

JSON: /api/v1/satellites/48356 · /tle

For live sub-satellite position, see the globe view (requires WebGL).

§ Visibility from observer

Set your observer location to see the next 7 days of passes ≥ 10°. The values pass through the URL so the page stays shareable.

No JS? Fill the form by hand. The geolocation button needs JavaScript.